This demonstration page uses our WeatherBlox Daily Observations layout. Learn more.

Left ArrowRight Arrow

Hourly Observations for September 12, 2022

Temp ( °F °C ) Dew Point ( °F °C ) Humidity (%) Winds ( mph kmh ) Pressure ( in mb ) Visibility ( mi km ) Precip ( " mm )
12:55 am 00:55 Clear 56 13.5 49 9.7 78 78 Calm 30.12 1020 10 16 0.00 0.00
1:55 am 01:55 Clear 55 12.6 48 8.9 78 78 Calm 30.10 1019 10 16 0.00 0.00
2:55 am 02:55 Clear 53 11.5 47 8.4 81 81 Calm 30.08 1019 10 16 0.00 0.00
3:55 am 03:55 Clear 53 11.8 46 7.9 77 77 W 3 6 30.08 1019 10 16 0.00 0.00
4:55 am 04:55 Clear 51 10.4 46 7.6 83 83 Calm 30.09 1019 10 16 0.00 0.00
5:55 am 05:55 Clear 50 10 47 8.1 88 88 Calm 30.08 1019 10 16 0.00 0.00
6:55 am 06:55 Clear with Mist and Fog 50 9.9 46 7.8 87 87 Calm 30.08 1019 4 6 0.00 0.00
7:55 am 07:55 Sunny 53 11.5 48 8.7 83 83 Calm 30.08 1019 7 11 0.00 0.00
8:55 am 08:55 Sunny 56 13.4 49 9.4 77 77 Calm 30.07 1018 9 14 0.00 0.00
9:55 am 09:55 Sunny 62 16.8 49 9.2 61 61 Calm 30.06 1018 10 16 0.00 0.00
10:55 am 10:55 Sunny 68 19.9 50 10 53 53 W 3 6 30.06 1018 10 16 0.00 0.00
11:55 am 11:55 Sunny 73 22.9 50 10 44 44 WNW 6 9 30.04 1017 9 14 0.00 0.00
12:55 pm 12:55 Sunny 76 24.7 48 9 37 37 NW 3 6 30.02 1017 10 16 0.00 0.00
1:55 pm 13:55 Sunny 79 26 47 8.5 33 33 WNW 6 9 30.00 1016 9 14 0.00 0.00
2:55 pm 14:55 Sunny 81 27 46 7.9 30 30 Calm 29.97 1015 10 16 0.00 0.00
3:25 pm 15:25 Hazy 81 27 48 9 32 32 W 7 11 29.95 1014 4 6 0.00 0.00
3:55 pm 15:55 Sunny 81 27.2 47 8.1 30 30 W 3 6 29.95 1014 10 16 0.00 0.00
4:55 pm 16:55 Sunny 83 28.3 47 8.5 29 29 NW 5 7 29.93 1014 10 16 0.00 0.00
5:55 pm 17:55 Sunny 82 27.9 46 7.7 28 28 Calm 29.92 1013 10 16 0.00 0.00
6:55 pm 18:55 Sunny 78 25.7 53 11.4 41 41 E 6 9 29.91 1013 10 16 0.00 0.00
7:55 pm 19:55 Clear 75 23.9 52 11.3 45 45 E 2 4 29.90 1013 7 11 0.00 0.00
8:55 pm 20:55 Clear 70 21.2 48 9.1 46 46 NE 7 11 29.92 1013 10 16 0.00 0.00
9:55 pm 21:55 Clear 67 19.3 49 9.2 52 52 E 3 6 29.93 1014 10 16 0.00 0.00
10:55 pm 22:55 Clear 65 18.4 46 7.8 50 50 Calm 29.93 1014 10 16 0.00 0.00
11:55 pm 23:55 Clear 63 17.3 46 7.9 54 54 Calm 29.94 1014 10 16 0.00 0.00

Powered by AerisWeather